map of KHOE home
Great Circle Mapper logo
KHOE - Airport
Location
City:  Homerville, Georgia, United States
ICAO:KHOE
FAA:HOE

Details
Type:Airport (Airfield)
Use:Public/Civil
Latitude:3103'25"N (31.056889)
Longitude:8246'31"W (-82.775277)
Datum:WGS 1984
Elevation:186 ft (57 m)
Variation:5.61W (WMM2015 magnetic declination)
-0.09 annual change
Runways:1
Longest:4999 × 75 ft (1524 × 23 m), paved

Time
Time Zone:UTC-5 (DST-4)
Local Time:

Weather
METAR:KHOE 060455Z AUTO 00000KT 10SM CLR 18/17 A3020 RMK AO2

Related Locations
Nearby:
Farthest:USL: 11406 mi / 18357 km
Useless Loop, WA, AU

Find:

   beyond  
but within

Other Information
Maps:
NOTAMs:
Links:
Sources:

  
flag of United States
flag of Georgia
  

Sectional Chart

Flight Planning
at skyvector.com

Satellite Image

Google Maps Satellite View

 

Copyright © 2004-2015 Karl L. Swartz. All rights reserved.
The Great Circle Mapper name and logo are trademarks of the Great Circle Mapper.
All other trademarks mentioned herein belong to their respective owners.
Please see credits for attibutions and further copyright information.

  Follow gcmap on Facebook Follow gcmap on Twitter Follow gcmap on Google+

hCard Microformat

Geo Microformat